sat.trackr.live / text

‹ back to catalog

STARLINK-5070

NORAD 55654 · 2023-021AC

PAYLOAD ACTIVE UNKNOWN

§ Identity

Operator
Country
US
Launch date
2023-02-17
Launch site
AFWTR
Launch vehicle
Mass (kg)
RCS (m²)

Purposes: comms

External: N2YO · Heavens-Above · Gunter

§ Orbital elements

Epoch: 2026-05-24T23:18:45.376128Z

Period
96.11 min
Inclination
69.9999°
Eccentricity
0.0002711
Mean motion
14.98330464 rev/d
Perigee alt
570.2 km
Apogee alt
573.9 km
Semi-major
6,950.2 km
B*
3.7326e-5
RAAN
352.2857°
Arg perigee
264.5724°
Mean anomaly
95.5126°
Rev number
18,021

§ Raw data

STARLINK-50701 55654U 23021AC  26144.97135852  .00000352  00000+0  37326-4 0  99942 55654  69.9999 352.2857 0002711 264.5724  95.5126 14.98330464180213

JSON: /api/v1/satellites/55654 · /tle

For live sub-satellite position, see the globe view (requires WebGL).

§ Visibility from observer

Set your observer location to see the next 7 days of passes ≥ 10°. The values pass through the URL so the page stays shareable.

No JS? Fill the form by hand. The geolocation button needs JavaScript.